Regional Weather Roundup
Issued by NWS

Home | Current Version | Previous Version | Text Only | Print | Product List | Glossary On
Versions: 1 2 3 4 5 6 7 8 9 10 11 12 13 14 15 16 17 18 19 20 21 22 23 24 25 26 27 28 29 30 31 32 33 34 35 36 37 38 39 40 41 42 43 44 45 46 47 48 49 50
000
ASUS43 KMKX 300100
RWRWI

WISCONSIN REGIONAL WEATHER ROUNDUP
NATIONAL WEATHER SERVICE MILWAUKEE/SULLIVAN WI
800 PM CDT WED OCT 29 2014

NOTE: "FAIR" INDICATES FEW OR NO CLOUDS BELOW 12,000 FEET WITH NO
SIGNIFICANT WEATHER AND/OR OBSTRUCTIONS TO VISIBILITY.

WIZ001-002-006>008-014>016-023>028-300200-
NORTHWEST WISCONSIN

CITY           SKY/WX    TMP DP  RH WIND       PRES   REMARKS
SUPERIOR ARPT  CLOUDY    40  34  77 W5        30.08R
ASHLAND        CLOUDY    41  33  73 S5        30.08S
HAYWARD        CLOUDY    40  32  73 SW5       30.08S
SIREN          CLOUDY    39  32  75 CALM      30.09S
CUMBERLAND     CLOUDY    37  32  81 SW3       30.08S
RICE LAKE      CLOUDY    40  32  72 W3        30.11S
CHETEK         CLOUDY    41  32  72 W5        30.10S
LADYSMITH      CLOUDY    40  33  75 SW3       30.11S
EAU CLAIRE     CLEAR     37  30  75 CALM      30.09S
MENOMONIE      PTCLDY    41  32  70 CALM      30.10S
NEW RICHMOND   PTCLDY    36  30  81 CALM      30.10S
OSCEOLA        CLOUDY    40  32  74 CALM      30.13S
$$

WIZ003>005-009-010-017-018-300200-
NORTH CENTRAL WISCONSIN

CITY           SKY/WX    TMP DP  RH WIND       PRES   REMARKS
MANITOWISH WTR CLOUDY    38  33  82 W5        30.06R WCI  34
ARBOR VITAE    CLOUDY    39  33  78 W6        30.06R WCI  35
WOODRUFF       CLOUDY    39  33  78 W6        30.06R WCI  35
RHINELANDER    CLOUDY    40  32  73 W3        30.07R
EAGLE RIVER    CLOUDY    38  32  79 CALM      30.05S
LAND O LAKES   CLOUDY    38  34  84 CALM      30.06R
PHILLIPS       CLOUDY    38  32  77 W3        30.07R
TOMAHAWK       CLOUDY    39  32  77 CALM      30.07R
MEDFORD        MOCLDY    36  32  85 W7        30.08S WCI  30
MERRILL        CLOUDY    40  33  74 CALM      30.07S
$$

WIZ029-030-035-036-043>047-300200-
CENTRAL WISCONSIN

CITY           SKY/WX    TMP DP  RH WIND       PRES   REMARKS
WAUSAU         PTCLDY    39  32  76 W9        30.07S WCI  33
MOSINEE        CLEAR     36  34  93 W5        30.10R WCI  32
MARSHFIELD     CLEAR     36  32  85 NW3       30.09S
STEVENS POINT  CLEAR     33  30  90 CALM      30.10R
WAUPACA        CLEAR     39  32  77 CALM      30.10S
WAUTOMA        NOT AVBL
WISC RAPIDS    CLEAR     34  31  88 CALM      30.11S
CAMP DOUGLAS   NOT AVBL
$$

WIZ011>013-019>022-031-037>040-048>050-300200-
NORTHEAST WISCONSIN

CITY           SKY/WX    TMP DP  RH WIND       PRES   REMARKS
ANTIGO         CLOUDY    39  33  79 CALM      30.07S
SHAWANO        CLOUDY    46  33  62 CALM      30.09S
OCONTO         CLOUDY    46  34  64 CALM      30.08S
STURGEON BAY   CLOUDY    46  34  61 NW7       30.08S
GREEN BAY      CLOUDY    45  36  70 SW3       30.09S
MANITOWOC      NOT AVBL
APPLETON       MOCLDY    43  34  70 W6        30.10S
CLINTONVILLE   CLOUDY    45  32  61 W5        30.09S
OSHKOSH        CLEAR     41  33  73 SW3       30.10S
$$

WIZ032>034-041-042-053>061-300200-
SOUTHWEST WISCONSIN

CITY           SKY/WX    TMP DP  RH WIND       PRES   REMARKS
LA CROSSE      CLEAR     40  32  73 CALM      30.12R
SPARTA         CLEAR     33  29  87 CALM      30.11F
VIROQUA        CLEAR     38  32  79 W3        30.10S
BOSCOBEL       CLEAR     36  30  79 CALM      30.13R
PRAIRIE DU CHI CLEAR     39  31  75 CALM      30.12S
PLATTEVILLE    CLEAR     40  31  71 SW3       30.13S
$$

WIZ056-057-062-063-064-067-068-300200-
SOUTH CENTRAL WISCONSIN

CITY           SKY/WX    TMP DP  RH WIND       PRES   REMARKS
REEDSBURG      CLEAR     38  32  77 CALM      30.11R
BARABOO/DELLS  CLEAR     36  31  82 CALM      30.11R
LONE ROCK      NOT AVBL
MINERAL POINT  CLEAR     41  32  70 SW3       30.12R
MADISON        CLEAR     37  31  78 CALM      30.13R
MIDDLETON      CLEAR     36  31  83 CALM      30.12S
WATERTOWN      CLEAR     35  31  88 CALM      30.11S
MONROE         CLEAR     41  32  70 W8        30.12R
JANESVILLE     CLEAR     41  30  65 CALM      30.12R
$$

WIZ051-052-058>065-066-070>072-300200-
SOUTHEAST WISCONSIN

CITY           SKY/WX    TMP DP  RH WIND       PRES   REMARKS
MILWAUKEE      MOCLDY    45  32  60 N5        30.13R
WAUKESHA       CLEAR     36  30  80 CALM      30.13R
MILWAUKEE/TIMM NOT AVBL
RACINE         CLOUDY    46  31  55 CALM      30.14S
BURLINGTON     CLEAR     35  31  86 CALM      30.13R
KENOSHA        PTCLDY    38  31  76 CALM      30.13R
FOND DU LAC    CLEAR     35  31  85 CALM      30.11S
SHEBOYGAN      CLOUDY    44  34  67 W3        30.11R
WEST BEND      MOCLDY    43  32  65 CALM      30.11S
JUNEAU         CLEAR     38  32  76 CALM      30.12S
$$

LSZ147-162-300200-
LAKE SUPERIOR

STATION/POSITION TIME  TEMP    WIND        PRES    WAVE
                       AIR SEA DIR/SP/G            HT/PER
                 (UTC) (F)     (DEG/KT/KT) (MB)    (FT/S)
W MID LAKE BUOY  2350   43 45  260/ 12/ 14 1018.0R   1/ 3
DEVILS ISLAND    0000   43     270/ 11/ 13 1018.6R
PORT WING        0040   43     220/  5/  7 1018.6R
SAXON HARBOR     0000   43     220/  1/  7 1018.6R
$$

LMZ867-665-643>646-300200-
LAKE MICHIGAN

STATION/POSITION TIME  TEMP    WIND        PRES    WAVE
                       AIR SEA DIR/SP/G            HT/PER
                 (UTC) (F)     (DEG/KT/KT) (MB)    (FT/S)
CHAMBERS ISLAND  0000   47     300/  3/  4 1018.6R
N MID LAKE BUOY  2350   45 51  350/  8/ 10 1018.5R   2/ 4
NORTHPORT PIER   0000   47     310/  7/ 11 1018.3R
KEWAUNEE LAKESHO 0012   47     290/  3/  5 1017.8R
SHEBOYGAN LAKESH 0000   47 51  280/  7/  9 1020.1R
PORT WASHINGTON  0000   47     280/  5/  8 1020.3R
ATWATER BUOY     0000   47     340/ 12/ 16 1020.8R
MILWAUKEE LAKESH 0000   47     340/  7/  9   N/A
S MID LAKE BUOY  2350   48 53  320/ 10/ 12 1020.0R   3/ 5
KENOSHA   LAKESH 0000   46     300/  4/  6 1020.0R
$$

TC  - TEMPERATURE IN CELSIUS
VSB - VISIBILITY IN STATUTE MILES
WCI - WIND CHILL INDEX
HX  - HEAT INDEX




USA.gov is the U.S. government's official web portal to all federal, state and local government web resources and services.